MXA582 MMGL-MMHO

Flight info

Callsign MXA582
Flight time 1h 39m
Altitude 34000
Route SEDEM1B SEDEM UJ3 MZT UJ7 HMO
Aircraft A320/M-SDE3FGHIRWY/LB1

Departure

Time 2026-04-25 20:10
Airport Guadalajara International Airport (MMGL)

Arrival

Time 2026-04-25 21:50
Airport General Ignacio L. Pesqueira International Airport (MMHO)
Time Latitude Longitude Altitude Speed Heading
2026-04-25 19:52 20.52522 -103.30389 5030 ft 0 kts 19°
2026-04-25 19:55 20.52507 -103.30394 5030 ft 3 kts 16°
2026-04-25 19:55 20.52487 -103.30400 5030 ft 3 kts 13°
2026-04-25 19:55 20.52463 -103.30405 5030 ft 3 kts 11°
2026-04-25 19:55 20.52443 -103.30410 5030 ft 3 kts 14°
2026-04-25 19:56 20.52425 -103.30415 5030 ft 3 kts 26°
2026-04-25 19:56 20.52413 -103.30426 5030 ft 3 kts 85°
2026-04-25 19:56 20.52416 -103.30446 5030 ft 2 kts 109°
2026-04-25 19:56 20.52420 -103.30457 5030 ft 2 kts 109°
2026-04-25 19:57 20.52426 -103.30477 5030 ft 3 kts 109°
2026-04-25 19:57 20.52431 -103.30491 5030 ft 1 kts 109°
2026-04-25 19:59 20.52429 -103.30486 5030 ft 2 kts 109°
2026-04-25 19:59 20.52421 -103.30461 5030 ft 5 kts 109°
2026-04-25 19:59 20.52395 -103.30431 5030 ft 7 kts 183°
2026-04-25 20:00 20.52340 -103.30447 5030 ft 10 kts 198°
2026-04-25 20:00 20.52318 -103.30455 5030 ft 11 kts 199°
2026-04-25 20:00 20.52241 -103.30430 5030 ft 10 kts 110°
2026-04-25 20:00 20.52208 -103.30332 5030 ft 17 kts 110°
2026-04-25 20:01 20.52117 -103.30053 5030 ft 23 kts 109°
2026-04-25 20:01 20.52063 -103.29885 5030 ft 25 kts 109°
2026-04-25 20:01 20.52016 -103.29791 5030 ft 9 kts 158°
2026-04-25 20:02 20.51980 -103.29761 5030 ft 11 kts 132°
2026-04-25 20:02 20.51910 -103.29667 5030 ft 10 kts 127°
2026-04-25 20:02 20.51883 -103.29630 5030 ft 10 kts 127°
2026-04-25 20:02 20.51817 -103.29535 5030 ft 14 kts 125°
2026-04-25 20:03 20.51755 -103.29443 5030 ft 17 kts 127°
2026-04-25 20:03 20.51706 -103.29372 5030 ft 18 kts 127°
2026-04-25 20:03 20.51637 -103.29272 5030 ft 14 kts 126°
2026-04-25 20:03 20.51590 -103.29210 5030 ft 7 kts 152°
2026-04-25 20:04 20.51539 -103.29216 5030 ft 6 kts 201°
2026-04-25 20:04 20.51523 -103.29223 5030 ft 0 kts 202°
2026-04-25 20:07 20.51520 -103.29224 5030 ft 1 kts 202°
2026-04-25 20:07 20.51507 -103.29230 5030 ft 0 kts 202°
2026-04-25 20:08 20.51506 -103.29231 5030 ft 1 kts 202°
2026-04-25 20:08 20.51478 -103.29244 5030 ft 11 kts 204°
2026-04-25 20:08 20.51420 -103.29280 5030 ft 8 kts 245°
2026-04-25 20:09 20.51421 -103.29302 5030 ft 0 kts 300°
2026-04-25 20:09 20.51422 -103.29303 5030 ft 1 kts 300°
2026-04-25 20:09 20.51438 -103.29337 5030 ft 19 kts 295°
2026-04-25 20:09 20.51601 -103.29730 5030 ft 95 kts 294°
2026-04-25 20:10 20.51965 -103.30591 5031 ft 157 kts 293°
2026-04-25 20:10 20.52472 -103.31798 5292 ft 182 kts 295°
2026-04-25 20:10 20.53011 -103.33009 5968 ft 184 kts 296°
2026-04-25 20:10 20.53599 -103.34243 6656 ft 189 kts 297°
2026-04-25 20:11 20.54169 -103.35530 7288 ft 197 kts 291°
2026-04-25 20:11 20.54653 -103.36938 7708 ft 207 kts 290°
2026-04-25 20:11 20.55218 -103.38406 8003 ft 222 kts 294°
2026-04-25 20:11 20.55888 -103.39956 8336 ft 237 kts 295°
2026-04-25 20:12 20.56608 -103.41618 8635 ft 256 kts 295°
2026-04-25 20:12 20.57339 -103.43377 9277 ft 260 kts 294°
2026-04-25 20:12 20.58061 -103.45126 10212 ft 253 kts 294°
2026-04-25 20:12 20.58531 -103.46250 10824 ft 249 kts 294°
2026-04-25 20:13 20.59700 -103.48407 11653 ft 261 kts 310°
2026-04-25 20:13 20.61256 -103.49558 11897 ft 286 kts 331°
2026-04-25 20:13 20.63056 -103.50569 12106 ft 304 kts 323°
2026-04-25 20:13 20.64766 -103.51998 12312 ft 320 kts 316°
2026-04-25 20:14 20.66451 -103.53642 12509 ft 337 kts 314°
2026-04-25 20:14 20.68206 -103.55403 12699 ft 354 kts 314°
2026-04-25 20:14 20.70063 -103.57218 12886 ft 369 kts 316°
2026-04-25 20:14 20.72027 -103.59065 13070 ft 383 kts 317°
2026-04-25 20:15 20.74078 -103.60948 13237 ft 396 kts 317°
2026-04-25 20:15 20.76203 -103.62894 13553 ft 403 kts 317°
2026-04-25 20:15 20.78329 -103.64860 14007 ft 406 kts 317°
2026-04-25 20:15 20.80466 -103.66860 14462 ft 409 kts 316°
2026-04-25 20:16 20.82581 -103.68849 14898 ft 411 kts 316°
2026-04-25 20:16 20.84739 -103.70873 15329 ft 414 kts 316°
2026-04-25 20:16 20.86914 -103.72906 15753 ft 416 kts 316°
2026-04-25 20:16 20.89100 -103.74949 16166 ft 419 kts 316°
2026-04-25 20:17 20.91330 -103.77033 16577 ft 421 kts 316°
2026-04-25 20:17 20.93543 -103.79100 16970 ft 424 kts 316°
2026-04-25 20:17 20.95740 -103.81154 17352 ft 426 kts 316°
2026-04-25 20:17 20.97980 -103.83252 17731 ft 429 kts 316°
2026-04-25 20:18 21.00228 -103.85362 18105 ft 431 kts 316°
2026-04-25 20:18 21.02488 -103.87483 18470 ft 433 kts 316°
2026-04-25 20:18 21.04764 -103.89618 18829 ft 436 kts 316°
2026-04-25 20:18 21.07048 -103.91760 19186 ft 438 kts 316°
2026-04-25 20:19 21.09348 -103.93919 19536 ft 440 kts 316°
2026-04-25 20:19 21.11580 -103.96167 19884 ft 441 kts 313°
2026-04-25 20:19 21.13736 -103.98518 20218 ft 443 kts 312°
2026-04-25 20:19 21.15882 -104.00908 20543 ft 445 kts 311°
2026-04-25 20:20 21.18024 -104.03311 20857 ft 447 kts 311°
2026-04-25 20:20 21.20163 -104.05699 21167 ft 449 kts 312°
2026-04-25 20:20 21.22341 -104.08107 21469 ft 451 kts 312°
2026-04-25 20:20 21.24546 -104.10534 21776 ft 453 kts 312°
2026-04-25 20:21 21.26749 -104.12964 22073 ft 455 kts 312°
2026-04-25 20:21 21.28953 -104.15410 22365 ft 457 kts 312°
2026-04-25 20:21 21.31165 -104.17873 22648 ft 459 kts 312°
2026-04-25 20:21 21.33385 -104.20343 22922 ft 461 kts 312°
2026-04-25 20:22 21.35619 -104.22825 23190 ft 463 kts 312°
2026-04-25 20:22 21.37104 -104.24472 23363 ft 464 kts 312°
2026-04-25 20:22 21.40119 -104.27814 23704 ft 467 kts 312°
2026-04-25 20:22 21.42348 -104.30290 23942 ft 468 kts 312°
2026-04-25 20:23 21.44620 -104.32819 24172 ft 470 kts 312°
2026-04-25 20:23 21.46889 -104.35347 24397 ft 471 kts 312°
2026-04-25 20:23 21.49169 -104.37887 24613 ft 473 kts 312°
2026-04-25 20:23 21.51458 -104.40436 24844 ft 474 kts 312°
2026-04-25 20:24 21.53746 -104.42979 25129 ft 473 kts 312°
2026-04-25 20:24 21.56034 -104.45523 25404 ft 473 kts 312°
2026-04-25 20:24 21.58312 -104.48060 25685 ft 472 kts 312°
2026-04-25 20:24 21.60591 -104.50603 25956 ft 472 kts 311°
2026-04-25 20:25 21.62865 -104.53148 26235 ft 471 kts 311°
2026-04-25 20:25 21.65109 -104.55656 26509 ft 470 kts 312°
2026-04-25 20:25 21.67406 -104.58218 26791 ft 470 kts 312°
2026-04-25 20:25 21.69673 -104.60750 27075 ft 469 kts 312°
2026-04-25 20:26 21.71904 -104.63242 27359 ft 469 kts 311°
2026-04-25 20:26 21.74167 -104.65774 27651 ft 468 kts 311°
2026-04-25 20:26 21.76422 -104.68298 27937 ft 468 kts 311°
2026-04-25 20:26 21.78675 -104.70822 28222 ft 467 kts 311°
2026-04-25 20:27 21.80921 -104.73338 28505 ft 467 kts 311°
2026-04-25 20:27 21.83171 -104.75862 28799 ft 466 kts 311°
2026-04-25 20:27 21.85417 -104.78378 29095 ft 465 kts 311°
2026-04-25 20:27 21.87661 -104.80895 29377 ft 465 kts 311°
2026-04-25 20:28 21.89900 -104.83409 29660 ft 464 kts 311°
2026-04-25 20:28 21.92137 -104.85921 29943 ft 464 kts 311°
2026-04-25 20:28 21.94365 -104.88425 30231 ft 463 kts 311°
2026-04-25 20:28 21.96591 -104.90927 30508 ft 463 kts 311°
2026-04-25 20:29 21.98822 -104.93437 30776 ft 462 kts 311°
2026-04-25 20:29 22.01014 -104.95904 31035 ft 461 kts 311°
2026-04-25 20:29 22.03230 -104.98400 31297 ft 461 kts 311°
2026-04-25 20:29 22.05449 -105.00901 31570 ft 460 kts 311°
2026-04-25 20:30 22.07660 -105.03393 31849 ft 460 kts 311°
2026-04-25 20:30 22.09866 -105.05883 32124 ft 459 kts 311°
2026-04-25 20:30 22.12071 -105.08372 32389 ft 459 kts 311°
2026-04-25 20:30 22.14275 -105.10857 32655 ft 458 kts 311°
2026-04-25 20:31 22.16480 -105.13343 32920 ft 458 kts 311°
2026-04-25 20:31 22.18675 -105.15823 33176 ft 457 kts 311°
2026-04-25 20:31 22.20872 -105.18309 33425 ft 457 kts 311°
2026-04-25 20:31 22.23063 -105.20791 33669 ft 456 kts 311°
2026-04-25 20:32 22.25254 -105.23270 33906 ft 456 kts 311°
2026-04-25 20:32 22.27441 -105.25743 34017 ft 455 kts 311°
2026-04-25 20:32 22.31815 -105.30696 34010 ft 455 kts 311°
2026-04-25 20:33 22.36150 -105.35613 34007 ft 455 kts 311°
2026-04-25 20:33 22.39069 -105.38926 34007 ft 455 kts 311°
2026-04-25 20:34 22.44882 -105.45528 34008 ft 455 kts 311°
2026-04-25 20:34 22.49246 -105.50492 34007 ft 455 kts 311°
2026-04-25 20:35 22.53603 -105.55452 34004 ft 455 kts 311°
2026-04-25 20:35 22.57961 -105.60420 34002 ft 455 kts 311°
2026-04-25 20:36 22.62315 -105.65384 34001 ft 455 kts 311°
2026-04-25 20:36 22.66643 -105.70326 33997 ft 455 kts 311°
2026-04-25 20:37 22.70994 -105.75301 33995 ft 455 kts 311°
2026-04-25 20:37 22.75345 -105.80278 33994 ft 455 kts 311°
2026-04-25 20:38 22.79696 -105.85259 33996 ft 455 kts 311°
2026-04-25 20:38 22.84041 -105.90239 33998 ft 455 kts 311°
2026-04-25 20:39 22.88391 -105.95230 33996 ft 455 kts 311°
2026-04-25 20:39 22.91299 -105.98570 33995 ft 455 kts 311°
2026-04-25 20:40 22.97079 -106.05215 33997 ft 455 kts 311°
2026-04-25 20:40 23.01427 -106.10221 33994 ft 455 kts 311°
2026-04-25 20:41 23.05767 -106.15220 33992 ft 455 kts 311°
2026-04-25 20:41 23.10077 -106.20190 33992 ft 455 kts 311°
2026-04-25 20:42 23.14423 -106.25207 33993 ft 455 kts 311°
2026-04-25 20:42 23.19316 -106.29617 33986 ft 459 kts 322°
2026-04-25 20:43 23.24595 -106.33444 33981 ft 459 kts 324°
2026-04-25 20:43 23.29897 -106.37305 33981 ft 459 kts 323°
2026-04-25 20:44 23.35148 -106.41259 33982 ft 459 kts 323°
2026-04-25 20:44 23.40413 -106.45186 33985 ft 459 kts 323°
2026-04-25 20:45 23.45697 -106.49095 33985 ft 459 kts 323°
2026-04-25 20:45 23.50969 -106.53028 33986 ft 459 kts 323°
2026-04-25 20:46 23.56231 -106.56957 33988 ft 459 kts 323°
2026-04-25 20:46 23.61512 -106.60898 33991 ft 459 kts 323°
2026-04-25 20:47 23.66745 -106.64808 33990 ft 459 kts 323°
2026-04-25 20:47 23.72002 -106.68745 33991 ft 459 kts 323°
2026-04-25 20:48 23.77277 -106.72696 33989 ft 459 kts 323°
2026-04-25 20:48 23.82536 -106.76638 33989 ft 459 kts 323°
2026-04-25 20:49 23.86914 -106.79924 33985 ft 459 kts 323°
2026-04-25 20:49 23.92180 -106.83883 33982 ft 459 kts 323°
2026-04-25 20:50 23.97436 -106.87833 33982 ft 459 kts 323°
2026-04-25 20:50 24.02696 -106.91793 33982 ft 459 kts 323°
2026-04-25 20:51 24.07960 -106.95750 33979 ft 459 kts 323°
2026-04-25 20:51 24.13220 -106.99715 33978 ft 459 kts 323°
2026-04-25 20:52 24.17584 -107.03011 33978 ft 459 kts 323°
2026-04-25 20:52 24.23701 -107.07630 33978 ft 459 kts 323°
2026-04-25 20:53 24.28991 -107.11628 33976 ft 459 kts 323°
2026-04-25 20:53 24.34215 -107.15585 33977 ft 459 kts 323°
2026-04-25 20:54 24.39466 -107.19560 33973 ft 459 kts 323°
2026-04-25 20:54 24.44720 -107.23545 33970 ft 459 kts 323°
2026-04-25 20:55 24.49975 -107.27540 33969 ft 459 kts 323°
2026-04-25 20:55 24.55225 -107.31535 33969 ft 459 kts 323°
2026-04-25 20:56 24.60444 -107.35510 33971 ft 459 kts 323°
2026-04-25 20:56 24.65691 -107.39508 33969 ft 459 kts 323°
2026-04-25 20:57 24.70935 -107.43510 33969 ft 459 kts 322°
2026-04-25 20:57 24.76245 -107.47418 33961 ft 461 kts 329°
2026-04-25 20:58 24.82249 -107.50014 33955 ft 465 kts 339°
2026-04-25 20:58 24.88419 -107.52176 33959 ft 465 kts 339°
2026-04-25 20:59 24.94550 -107.54443 33969 ft 465 kts 338°
2026-04-25 20:59 25.00621 -107.56773 33975 ft 465 kts 338°
2026-04-25 21:00 25.05755 -107.58691 33976 ft 465 kts 339°
2026-04-25 21:01 25.15877 -107.62467 33973 ft 465 kts 338°
2026-04-25 21:01 25.21994 -107.64774 33973 ft 465 kts 338°
2026-04-25 21:02 25.28114 -107.67067 33973 ft 465 kts 338°
2026-04-25 21:02 25.34253 -107.69367 33969 ft 465 kts 338°
2026-04-25 21:03 25.40374 -107.71677 33964 ft 465 kts 338°
2026-04-25 21:03 25.46497 -107.73985 33960 ft 465 kts 338°
2026-04-25 21:04 25.52580 -107.76277 33957 ft 465 kts 338°
2026-04-25 21:04 25.58708 -107.78591 33953 ft 465 kts 338°
2026-04-25 21:05 25.64834 -107.80906 33955 ft 465 kts 338°
2026-04-25 21:05 25.70956 -107.83219 33955 ft 465 kts 338°
2026-04-25 21:06 25.77078 -107.85542 33959 ft 465 kts 338°
2026-04-25 21:06 25.83203 -107.87864 33960 ft 465 kts 338°
2026-04-25 21:07 25.89289 -107.90175 33959 ft 465 kts 338°
2026-04-25 21:07 25.95408 -107.92502 33955 ft 465 kts 338°
2026-04-25 21:08 26.01531 -107.94831 33953 ft 465 kts 338°
2026-04-25 21:08 26.07651 -107.97158 33955 ft 465 kts 338°
2026-04-25 21:09 26.16834 -108.00668 33954 ft 465 kts 338°
2026-04-25 21:09 26.22953 -108.03004 33957 ft 465 kts 338°
2026-04-25 21:10 26.29072 -108.05343 33957 ft 465 kts 338°
2026-04-25 21:10 26.35195 -108.07686 33955 ft 465 kts 338°
2026-04-25 21:11 26.41271 -108.10016 33954 ft 465 kts 338°
2026-04-25 21:11 26.47385 -108.12364 33953 ft 465 kts 338°
2026-04-25 21:12 26.53511 -108.14717 33954 ft 465 kts 338°
2026-04-25 21:12 26.58458 -108.17017 33955 ft 460 kts 327°
2026-04-25 21:13 26.61810 -108.19916 33961 ft 455 kts 314°
2026-04-25 21:13 26.64051 -108.22420 33953 ft 455 kts 312°
2026-04-25 21:13 26.68412 -108.27511 33972 ft 456 kts 312°
2026-04-25 21:14 26.72901 -108.32513 34026 ft 456 kts 313°
2026-04-25 21:14 26.77426 -108.37478 34045 ft 456 kts 313°
2026-04-25 21:15 26.81903 -108.42511 34043 ft 455 kts 313°
2026-04-25 21:15 26.86378 -108.47536 34039 ft 455 kts 313°
2026-04-25 21:16 26.90847 -108.52521 34025 ft 455 kts 313°
2026-04-25 21:16 26.95322 -108.57542 34006 ft 455 kts 313°
2026-04-25 21:17 26.99800 -108.62574 33988 ft 455 kts 313°
2026-04-25 21:17 27.04285 -108.67608 33972 ft 455 kts 313°
2026-04-25 21:18 27.08764 -108.72648 33961 ft 455 kts 313°
2026-04-25 21:18 27.13207 -108.77658 33954 ft 455 kts 313°
2026-04-25 21:19 27.17680 -108.82701 33952 ft 455 kts 313°
2026-04-25 21:19 27.22146 -108.87745 33955 ft 455 kts 313°
2026-04-25 21:20 27.25862 -108.91946 33954 ft 455 kts 313°
2026-04-25 21:20 27.31089 -108.97865 33955 ft 455 kts 313°
2026-04-25 21:21 27.35562 -109.02933 33956 ft 455 kts 313°
2026-04-25 21:21 27.39997 -109.07966 33957 ft 455 kts 313°
2026-04-25 21:22 27.44458 -109.13037 33954 ft 455 kts 313°
2026-04-25 21:22 27.48919 -109.18112 33954 ft 455 kts 312°
2026-04-25 21:23 27.53377 -109.23183 33953 ft 455 kts 313°
2026-04-25 21:23 27.57811 -109.28240 33957 ft 455 kts 312°
2026-04-25 21:24 27.62246 -109.33333 33955 ft 455 kts 312°
2026-04-25 21:24 27.66657 -109.38459 33954 ft 455 kts 312°
2026-04-25 21:25 27.71080 -109.43591 33954 ft 455 kts 312°
2026-04-25 21:25 27.75500 -109.48713 33954 ft 455 kts 312°
2026-04-25 21:26 27.77674 -109.51235 33788 ft 451 kts 312°
2026-04-25 21:26 27.79851 -109.53761 33246 ft 448 kts 312°
2026-04-25 21:26 27.82030 -109.56294 32391 ft 450 kts 312°
2026-04-25 21:26 27.84226 -109.58854 31334 ft 457 kts 312°
2026-04-25 21:27 27.86452 -109.61450 30423 ft 460 kts 312°
2026-04-25 21:27 27.88686 -109.64050 29539 ft 462 kts 312°
2026-04-25 21:27 27.90927 -109.66658 28605 ft 463 kts 312°
2026-04-25 21:27 27.93182 -109.69285 27632 ft 465 kts 312°
2026-04-25 21:28 27.95440 -109.71921 26615 ft 467 kts 312°
2026-04-25 21:28 27.97710 -109.74574 25558 ft 469 kts 312°
2026-04-25 21:28 27.99978 -109.77224 24447 ft 471 kts 312°
2026-04-25 21:28 28.02231 -109.79857 23506 ft 470 kts 312°
2026-04-25 21:29 28.04515 -109.82525 22793 ft 462 kts 312°
2026-04-25 21:29 28.06700 -109.85080 22041 ft 455 kts 312°
2026-04-25 21:29 28.08885 -109.87640 21237 ft 449 kts 312°
2026-04-25 21:29 28.11038 -109.90167 20421 ft 443 kts 312°
2026-04-25 21:30 28.13174 -109.92676 19608 ft 438 kts 312°
2026-04-25 21:30 28.15283 -109.95154 18807 ft 433 kts 312°
2026-04-25 21:30 28.17480 -109.97468 18017 ft 430 kts 318°
2026-04-25 21:30 28.19009 -109.98886 17502 ft 427 kts 319°
2026-04-25 21:31 28.22106 -110.01659 16468 ft 421 kts 320°
2026-04-25 21:31 28.24379 -110.03666 15709 ft 416 kts 320°
2026-04-25 21:31 28.26644 -110.05683 14942 ft 411 kts 319°
2026-04-25 21:31 28.28871 -110.07695 14176 ft 407 kts 319°
2026-04-25 21:32 28.31064 -110.09692 13412 ft 402 kts 319°
2026-04-25 21:32 28.33234 -110.11666 12648 ft 398 kts 319°
2026-04-25 21:32 28.35387 -110.13614 11902 ft 393 kts 319°
2026-04-25 21:32 28.37526 -110.15545 11736 ft 394 kts 319°
2026-04-25 21:33 28.39676 -110.17489 11834 ft 395 kts 319°
2026-04-25 21:33 28.41825 -110.19436 11896 ft 395 kts 319°
2026-04-25 21:33 28.43978 -110.21391 11936 ft 396 kts 319°
2026-04-25 21:33 28.46130 -110.23345 11975 ft 396 kts 319°
2026-04-25 21:34 28.48285 -110.25298 11990 ft 396 kts 319°
2026-04-25 21:34 28.50434 -110.27248 11950 ft 396 kts 319°
2026-04-25 21:34 28.52587 -110.29204 11968 ft 396 kts 319°
2026-04-25 21:34 28.54710 -110.31138 11980 ft 396 kts 319°
2026-04-25 21:35 28.56861 -110.33096 11987 ft 396 kts 319°
2026-04-25 21:35 28.59014 -110.35055 12072 ft 396 kts 319°
2026-04-25 21:35 28.61166 -110.37011 12001 ft 396 kts 319°
2026-04-25 21:35 28.63320 -110.38970 11998 ft 396 kts 319°
2026-04-25 21:36 28.64750 -110.40275 11998 ft 396 kts 319°
2026-04-25 21:36 28.66880 -110.42217 11840 ft 386 kts 319°
2026-04-25 21:36 28.68939 -110.44092 11288 ft 373 kts 319°
2026-04-25 21:36 28.70942 -110.45922 10420 ft 366 kts 320°
2026-04-25 21:37 28.72908 -110.47723 9755 ft 356 kts 320°
2026-04-25 21:37 28.74165 -110.48871 9505 ft 344 kts 320°
2026-04-25 21:37 28.76587 -110.51083 9069 ft 322 kts 320°
2026-04-25 21:37 28.78291 -110.52641 8788 ft 307 kts 320°
2026-04-25 21:38 28.79921 -110.54134 8543 ft 293 kts 321°
2026-04-25 21:38 28.81474 -110.55555 8314 ft 279 kts 321°
2026-04-25 21:38 28.82971 -110.56928 7904 ft 274 kts 321°
2026-04-25 21:38 28.84452 -110.58285 7409 ft 272 kts 321°
2026-04-25 21:39 28.85927 -110.59636 6895 ft 271 kts 321°
2026-04-25 21:39 28.87385 -110.60972 6381 ft 271 kts 321°
2026-04-25 21:39 28.88850 -110.62315 5859 ft 270 kts 321°
2026-04-25 21:39 28.90315 -110.63660 5337 ft 270 kts 321°
2026-04-25 21:40 28.91774 -110.64998 4815 ft 269 kts 321°
2026-04-25 21:40 28.93230 -110.66333 4305 ft 268 kts 321°
2026-04-25 21:40 28.94685 -110.67670 4026 ft 269 kts 321°
2026-04-25 21:40 28.96132 -110.69002 3996 ft 260 kts 321°
2026-04-25 21:41 28.97490 -110.70249 3991 ft 244 kts 321°
2026-04-25 21:41 28.98788 -110.71441 3993 ft 237 kts 321°
2026-04-25 21:41 29.00075 -110.72624 3996 ft 237 kts 321°
2026-04-25 21:41 29.01361 -110.73807 3996 ft 237 kts 321°
2026-04-25 21:42 29.02603 -110.74952 3987 ft 224 kts 321°
2026-04-25 21:42 29.03783 -110.76038 4001 ft 209 kts 321°
2026-04-25 21:42 29.04878 -110.77047 3998 ft 203 kts 321°
2026-04-25 21:42 29.05935 -110.78022 3991 ft 186 kts 321°
2026-04-25 21:43 29.06919 -110.78927 4004 ft 174 kts 321°
2026-04-25 21:43 29.07841 -110.79777 3998 ft 168 kts 321°
2026-04-25 21:43 29.08742 -110.80607 4000 ft 168 kts 321°
2026-04-25 21:43 29.09652 -110.81446 3999 ft 168 kts 321°
2026-04-25 21:44 29.10562 -110.82286 3998 ft 168 kts 321°
2026-04-25 21:44 29.11486 -110.83107 3997 ft 168 kts 324°
2026-04-25 21:44 29.13465 -110.84480 3710 ft 165 kts 330°
2026-04-25 21:45 29.14458 -110.85151 3433 ft 166 kts 329°
2026-04-25 21:45 29.15114 -110.85604 3268 ft 166 kts 329°
2026-04-25 21:45 29.16418 -110.86541 2994 ft 165 kts 323°
2026-04-25 21:45 29.17247 -110.87454 2992 ft 166 kts 313°
2026-04-25 21:46 29.17925 -110.88507 2974 ft 166 kts 289°
2026-04-25 21:46 29.17838 -110.89787 2978 ft 166 kts 242°
2026-04-25 21:46 29.17120 -110.90817 3005 ft 165 kts 230°
2026-04-25 21:46 29.16451 -110.91855 2866 ft 163 kts 237°
2026-04-25 21:47 29.15853 -110.92965 2786 ft 165 kts 239°
2026-04-25 21:47 29.15267 -110.94087 2729 ft 163 kts 239°
2026-04-25 21:47 29.14681 -110.95191 2450 ft 162 kts 238°
2026-04-25 21:47 29.14109 -110.96263 2099 ft 155 kts 239°
2026-04-25 21:48 29.13541 -110.97337 1812 ft 160 kts 239°
2026-04-25 21:48 29.12955 -110.98440 1803 ft 163 kts 238°
2026-04-25 21:48 29.12367 -110.99555 1631 ft 164 kts 239°
2026-04-25 21:48 29.11775 -111.00655 1422 ft 162 kts 238°
2026-04-25 21:49 29.11193 -111.01753 1163 ft 160 kts 238°
2026-04-25 21:49 29.10618 -111.02831 945 ft 161 kts 239°
2026-04-25 21:49 29.10040 -111.03918 725 ft 160 kts 238°
2026-04-25 21:49 29.09476 -111.04977 642 ft 145 kts 238°
2026-04-25 21:50 29.09107 -111.05672 641 ft 57 kts 239°
2026-04-25 21:50 29.09015 -111.05848 641 ft 17 kts 239°
2026-04-25 21:50 29.08950 -111.05971 641 ft 19 kts 239°
2026-04-25 21:50 29.08904 -111.06059 641 ft 20 kts 239°
2026-04-25 21:51 29.08792 -111.06203 641 ft 16 kts 171°
2026-04-25 21:51 29.08745 -111.06127 641 ft 13 kts 85°
2026-04-25 21:51 29.08747 -111.06019 641 ft 13 kts 85°
2026-04-25 21:51 29.08789 -111.05918 641 ft 15 kts 59°
2026-04-25 21:52 29.08847 -111.05808 641 ft 16 kts 58°
2026-04-25 21:52 29.08908 -111.05695 641 ft 18 kts 58°
2026-04-25 21:52 29.08978 -111.05563 641 ft 21 kts 58°
2026-04-25 21:52 29.09032 -111.05463 641 ft 11 kts 58°
2026-04-25 21:53 29.09068 -111.05396 641 ft 7 kts 58°
2026-04-25 21:53 29.09063 -111.05360 641 ft 6 kts 143°
2026-04-25 21:53 29.09024 -111.05331 641 ft 6 kts 148°
2026-04-25 21:53 29.09013 -111.05323 641 ft 2 kts 148°
2026-04-25 21:54 29.09012 -111.05323 641 ft 0 kts 148°